• Join FlightAware (Why Join?)
  • Login
  • US Flag 
11:10AM EDT


 

Airport Tracker/Info


-or-


 

Live Flight TrackerFlight Track Log ✈ OPT452 ✈ 21-Apr-2013 ✈ KJFK - KTEB

Flight Track Log - Related Links

Times and Time Zones

All times are in EDT time to prevent confusion due to time zone crossing. See the OPT452 flight status page for this flight to view local times or setup timezone preferences in your user account.

Time Position Orientation Groundspeed Altitude Reporting Facility
EDT Latitude Longitude Course Direction KTS MPH feet Rate Location/Type
01:33PM 40.6167 -73.8833 237° Southwest 214 246 4,000  Level New York TRACON
01:34PM 40.5500 -73.9167 201° Southwest 255 293 4,000  Level New York TRACON
01:35PM 40.4833 -73.9500 201° Southwest 263 303 4,000  Level New York TRACON
01:37PM 40.2312 -74.0446 196° South  Level FlightAware Approximate
01:43PM 40.1667 -74.3500 57° Northeast 239 275 4,100  Level New York TRACON
01:44PM 40.7368 -74.3227 61° Northeast  Level FlightAware Approximate
01:44PM 40.1833 -74.4333 285° West 238 274 4,000  Level New York TRACON
01:45PM 40.8162 -74.1176 57° Northeast  Level FlightAware Approximate
01:45PM 40.2167 -74.5000 303° West 239 275 4,000  Level New York TRACON
01:46PM 40.8500 -74.0500 57° Northeast  Level FlightAware Approximate
01:46PM 40.2667 -74.5667 315° West 233 268 3,900  Level New York TRACON
01:47PM 40.8501 -74.0608 57° Northeast  Level Estimated
01:47PM 40.3167 -74.6167 323° Northwest 247 284 3,000  Level New York TRACON
01:48PM 40.8501 -74.0608 57° Northeast  Level Estimated
01:48PM 40.3833 -74.6500 339° North 231 266 3,000  Level New York TRACON
01:49PM 40.4333 -74.6667 346° North 228 262 3,000  Level New York TRACON
01:50PM 40.5000 -74.6333 21° North 233 268 3,000  Level New York TRACON
01:51PM 40.5333 -74.5667 57° Northeast 242 278 3,000  Level New York TRACON
01:52PM 40.5833 -74.5000 45° Northeast 248 285 3,000  Level New York TRACON
01:53PM 40.6167 -74.4333 57° Northeast 242 278 3,100  Climbing New York TRACON
01:54PM 40.6667 -74.3667 45° Northeast 241 277 3,000 -240 Descending New York TRACON
01:55PM 40.7000 -74.2833 62° Northeast 246 283 2,700 -600 Descending New York TRACON
01:56PM 40.7500 -74.2167 45° Northeast 228 262 1,900 -600 Descending New York TRACON
01:57PM 40.7833 -74.1667 49° Northeast 198 228 1,500 -360 Descending New York TRACON
01:58PM 40.8167 -74.1167 49° Northeast 150 173 1,200 -540 Descending New York TRACON
01:59PM 40.8333 -74.0833 57° Northeast 118 136 500 -600 Descending New York TRACON
02:00PM 40.8500 -74.0667 37° Northeast 115 132 100 -420 Descending New York TRACON
02:02PM 40.8501 -74.0608 57° Northeast  Level Estimated
02:09PM 40.8501 -74.0608 57° Northeast  Level Estimated
02:10PM 40.8501 -74.0608 57° Northeast  Level Estimated
02:11PM 40.8501 -74.0608 57° Northeast  Level Estimated